YUZGU 11 (RS5S) (53310 NORAD) Tracking and Keplerian Element Data

This shows tracking and keplerian element data for the satellite.

Feedback or suggestion? Click here.




ElementValue
Catalog53310
NameYUZGU 11 (RS5S)
Epoch Orbit1913
Epoch Day325.21872935
Epoch Year2022
RAAN273.1488
Inclination51.6362
Eccentricity0.0008648
Argument of Perigee108.0597
Mean Anonmoly252.1342
Mean Motion15.66128023
Decay Rate0.00113808
L11 53310U 98067TV 22325.21872935 .00113808 00000+0 10743-2 0 9990
L22 53310 51.6362 273.1488 0008648 108.0597 252.1342 15.66128023 19133



Live tracking and technical data element details for YUZGU 11 (RS5S) (NORAD 53310). YUZGU 11 (RS5S) can be tracked NOW for your location showing map with azimuth and elevation plus other details from your city location.







IsCatalogInMostPopularTable: catalog: 53310, numindb: 7
Update: records affected: 1



GetName: 53310 YUZGU 11 (RS5S)

Hit Count: updated at: Tue, 29 Nov 2022 00:23:47 GMT